Vertical_Velocity
-0 1 1 0 -1 0 1 1 1 -0 -1 -0 -0 -1 -1 -1 -2 -1 -0 -1 -1 -1 -1 -2 -1 -2 -2 0 -0 -1 -3 -7 -7 -9 -6 -5 -2 -4 -3 -1 -6 -2 -0 -1 2 0 -1
-1 -0 1 -1 -0 -1 -0 -1 -0 -1 -1 -0 -1 0 0 -0 -1 -2 -1 -1 -1 -0 -1 -2 -2 -1 -2 -2 -2 -2 -3 -4 -6 -7 -7 -3 -4 -4 -2 -4 -2 -2 -2 -4 -3 2 -0
1 -1 -0 0 -0 -1 -3 -2 -1 1 -0 -1 -0 0 1 1 0 -0 -1 -2 -0 -1 -1 0 -1 -2 -4 -3 -0 -1 -2 -5 -4 -7 -8 -4 -3 -2 -5 -4 -3 -1 -3 -6 -5 -3 -0
-2 -0 -1 -1 -1 -1 -0 -0 1 -1 -1 -1 -1 -1 1 -1 -0 -0 0 -1 -2 0 -1 -1 -0 -2 -2 -1 0 -4 -5 2 -5 -3 -6 -6 -7 -5 -0 -1 -0 -0 2 3 -2 -3 -3
-0 -1 -0 -1 -3 -1 -2 -1 -3 0 -2 -1 -0 -2 -1 -0 -1 -0 -0 -1 -2 -2 -0 -1 -2 -1 -2 -3 -2 -0 -2 -3 -5 -8 -8 -7 -4 -1 0 2 -2 -1 1 -0 1 -6 -1
-1 2 0 -1 1 -1 1 1 -2 -2 0 -2 0 -0 -0 0 -1 -2 -1 1 -1 -1 -3 -0 -2 -0 1 -1 -1 -3 -3 -2 -1 -5 -8 -0 -4 -3 -5 -15 -16 -10 -5 -5 -3 3 -0
1 -1 1 0 -0 0 -1 -1 0 1 -0 -0 -1 0 0 -2 -1 -0 -1 -1 0 -1 1 0 0 -2 -2 -3 -3 -1 -2 -0 -2 0 -1 -3 -7 -7 -5 -6 -0 4 2 2 3 -4 0
-1 0 -0 1 1 -0 0 -0 0 -1 1 1 1 -1 -0 -1 -1 -2 -2 1 -1 -2 -1 1 -0 -1 -2 -1 -1 -2 -1 -0 -1 -2 -5 -8 -3 -2 -7 -2 -3 0 -6 -2 -6 -5 -5
2 2 0 -0 0 -1 -0 -0 -0 1 -1 -0 -0 0 -2 1 -1 -0 -2 -1 -2 -0 -1 -0 -2 -2 -0 -1 -1 -2 -2 -0 -1 -2 -3 -3 -4 -2 1 3 4 -1 -3 -2 -7 -0 -3
-2 -1 2 1 1 2 0 0 0 2 -0 0 0 -0 2 -2 0 -1 -1 -1 -1 -1 -1 -2 -1 -0 -2 -2 -5 -2 -0 -2 -4 1 -1 1 -1 -1 -1 -1 -2 -5 -3 -6 0 0 -9
0 -1 -2 -0 1 1 -0 0 0 0 1 0 0 -1 0 1 -0 -1 -0 -0 1 -1 -3 -3 -1 -1 -0 -4 -2 -3 -3 2 -1 -5 -1 -5 0 -1 -1 -3 0 -3 -1 3 5 1 -2
0 -2 -1 -4 2 -5 0 1 1 -0 1 -0 0 1 -1 -0 -1 -1 -1 -2 -2 -1 -3 -1 -2 -1 -1 1 -1 -2 -1 -2 3 4 -1 -2 -3 -1 1 -2 -3 3 6 4 5 0 -7
0 0 -2 -2 1 4 -1 2 0 -1 -0 1 -0 -2 -0 0 -2 -1 0 -1 -1 2 0 -1 -0 -0 -1 1 -1 -3 -2 -3 -4 0 5 3 2 1 -2 3 -1 -1 3 3 -1 -9 -8
1 1 1 -3 -6 -1 -3 -3 2 -0 0 -0 0 -0 -1 -0 -2 0 1 1 -3 2 2 0 -1 -0 -1 -1 -0 -2 -2 0 -2 -4 -2 -0 -5 -2 0 -2 -2 -4 -4 -6 -5 -3 -2
-3 -0 -0 -1 -2 -1 -1 -1 -3 -2 2 -2 -1 1 -2 1 -1 0 0 0 -0 -0 1 0 0 -1 1 -1 2 -2 -2 -2 -2 -2 -3 -2 -5 -5 -3 -0 -0 -0 -2 -3 1 -2 3
1 1 -1 -2 -1 -1 -3 -2 -4 1 -0 4 -4 0 0 0 -1 -0 -1 1 -3 -3 -2 -1 -0 1 0 0 -4 1 -4 -0 -2 -2 -2 -2 4 -1 0 -1 -0 1 2 1 -4 -2 -1
-1 -2 -1 -1 -1 -3 -2 0 1 -1 -5 -0 -3 -0 3 -3 -2 -1 -1 1 -1 1 1 -1 1 -3 0 -1 -0 -2 0 1 -2 -4 -2 -2 -2 5 2 -1 0 1 -1 -2 -4 -2 -3
1 -2 -2 2 -3 0 1 -1 1 0 2 -1 -3 -1 1 -1 -4 -2 7 -2 -1 6 1 -5 -4 -1 1 0 1 -0 -1 0 -1 -2 -1 -2 -0 -5 3 -0 3 -1 -1 1 -0 0 -5
2 -0 -1 0 -1 0 -1 -0 0 -1 1 -0 -9 -0 -2 -1 -9 1 5 -3 -8 9 8 -2 -1 1 5 0 -9 2 -0 0 -0 -2 -3 -2 -3 -2 2 -1 -1 3 -3 -1 5 2 -2
-1 -0 0 -0 2 -1 2 2 -2 0 1 4 -9 -8 2 1 -3 -2 2 -0 -2 2 4 -1 -3 2 1 3 1 -5 0 -1 -2 -0 -3 -4 2 -1 1 3 -3 -2 1 -5 -1 3 -0
2 1 -1 -3 0 1 0 -4 -1 1 1 2 5 -5 -8 -5 6 -3 1 -2 4 2 -3 6 -2 12 -6 -4 -0 -5 1 -1 1 -0 -2 -3 1 -0 -1 2 2 -4 -3 1 -2 0 -2
2 1 -1 -0 -2 -2 -1 4 1 2 -1 -1 -2 1 0 -1 2 5 4 14 7 13 -2 7 -5 8 -8 -3 5 -7 -4 4 3 4 -3 0 -7 -2 3 2 3 4 -0 1 -2 1 -1
-0 2 2 1 -0 2 3 0 -1 4 2 1 0 -0 -4 12 7 -7 16 5 7 1 6 6 3 -6 -7 14 2 -9 -3 -1 -6 2 0 -0 -3 -3 8 -1 1 1 2 -1 0 -2 0
2 1 -0 1 6 5 -0 3 1 3 5 -0 1 -3 -4 3 -7 13 -3 -1 2 8 -14 -1 -2 -2 22 2 -2 -3 -7 -4 -6 4 5 -2 -1 -4 -2 0 2 1 -1 1 -2 1 -2
3 4 3 2 2 2 5 1 1 -1 -5 1 3 -5 -10 -16 -0 6 7 -7 -5 5 -6 -7 6 5 1 -3 -2 -7 -5 -8 11 -3 -3 2 -5 -8 -9 -1 -0 5 -2 -2 1 6 -0
0 -0 -1 -2 -1 -2 -1 -1 -1 2 -5 -4 -0 0 -8 -23 16 0 2 3 2 7 -5 -1 0 3 1 6 -3 -18 -16 14 -10 2 7 2 -2 -1 -3 -6 -6 4 -5 -3 -4 4 7
-1 -0 1 1 -0 0 1 2 -1 4 7 -1 4 -8 -7 -25 16 -11 -0 -6 11 6 -13 8 6 -2 4 6 -5 -5 -5 6 -25 -7 2 -0 -0 -6 -2 -10 -1 8 -4 -5 -3 -2 -1
-1 -0 -1 1 -0 -1 -1 -0 2 1 3 3 9 5 -11 -35 21 -1 3 2 17 2 -5 26 -9 2 3 -4 9 19 -17 14 -9 9 -5 3 2 4 -3 -8 -8 -0 0 -1 -3 -2 -1
1 2 2 -1 1 2 2 -0 -2 0 0 -5 7 6 1 -24 -6 -14 15 9 6 21 -4 21 -11 4 3 -9 2 14 3 3 10 -19 9 -29 16 4 -6 2 -0 -3 -3 -1 -1 -0 -1
Height
5838 5838 5838 5838 5839 5839 5838 5837 5836 5835 5834 5833 5832 5831 5830 5828 5827 5825 5824 5822 5819 5817 5813 5810 5806 5802 5798 5793 5788 5781 5775 5768 5760 5752 5743 5733 5725 5718 5713 5707 5701 5696 5692 5689 5688 5687 5688
5836 5837 5837 5837 5837 5837 5836 5835 5834 5833 5832 5831 5829 5828 5827 5826 5824 5823 5821 5819 5817 5814 5811 5807 5804 5799 5795 5791 5784 5778 5772 5766 5759 5752 5743 5734 5725 5717 5711 5705 5699 5694 5690 5687 5685 5684 5684
5833 5833 5834 5834 5834 5834 5834 5833 5832 5831 5830 5829 5827 5826 5824 5823 5821 5820 5818 5816 5814 5811 5808 5805 5801 5797 5792 5788 5782 5776 5770 5763 5758 5750 5743 5734 5725 5717 5709 5704 5698 5692 5689 5685 5684 5681 5679
5830 5831 5832 5832 5832 5832 5832 5831 5830 5829 5828 5827 5825 5824 5823 5820 5818 5817 5815 5813 5811 5808 5806 5803 5799 5795 5791 5787 5781 5774 5768 5764 5756 5750 5743 5734 5724 5716 5710 5703 5698 5693 5689 5686 5682 5680 5677
5828 5828 5829 5829 5830 5830 5829 5829 5828 5827 5826 5825 5823 5822 5820 5818 5816 5815 5813 5810 5808 5806 5803 5800 5797 5793 5790 5784 5779 5773 5768 5761 5754 5748 5741 5734 5727 5720 5714 5706 5699 5694 5688 5683 5681 5676 5674
5824 5825 5825 5826 5826 5826 5826 5826 5825 5824 5823 5822 5821 5819 5818 5816 5814 5812 5810 5808 5805 5803 5801 5798 5795 5794 5788 5783 5778 5773 5766 5759 5754 5747 5741 5737 5729 5720 5712 5703 5698 5693 5687 5682 5678 5677 5671
5820 5821 5821 5821 5822 5822 5822 5822 5821 5821 5820 5819 5818 5817 5815 5814 5811 5809 5808 5806 5804 5801 5798 5796 5793 5789 5786 5781 5777 5772 5766 5760 5753 5749 5743 5735 5728 5719 5711 5704 5699 5694 5688 5683 5677 5673 5669
5815 5815 5817 5817 5818 5818 5818 5818 5817 5817 5817 5816 5815 5814 5813 5811 5810 5807 5805 5803 5801 5799 5796 5793 5790 5787 5784 5780 5776 5771 5766 5760 5754 5747 5741 5735 5728 5721 5714 5707 5702 5696 5689 5682 5676 5670 5667
5808 5810 5811 5812 5813 5814 5814 5814 5813 5813 5812 5812 5811 5811 5809 5809 5807 5806 5804 5802 5799 5797 5794 5792 5788 5784 5782 5778 5774 5770 5766 5760 5754 5747 5741 5735 5730 5724 5717 5711 5706 5697 5689 5683 5677 5672 5667
5802 5803 5805 5806 5808 5808 5809 5809 5809 5809 5809 5808 5808 5807 5805 5805 5805 5802 5801 5799 5797 5795 5793 5791 5787 5784 5780 5776 5772 5768 5763 5759 5753 5749 5742 5737 5730 5724 5719 5711 5706 5698 5691 5684 5678 5674 5668
5793 5795 5798 5800 5801 5802 5803 5803 5804 5804 5804 5803 5803 5802 5801 5800 5799 5799 5798 5796 5794 5792 5791 5789 5785 5782 5778 5775 5771 5767 5762 5758 5752 5746 5742 5736 5730 5724 5719 5713 5707 5701 5693 5687 5682 5676 5671
5786 5787 5789 5791 5793 5794 5795 5796 5797 5797 5798 5797 5797 5796 5796 5795 5795 5794 5793 5792 5791 5791 5787 5785 5782 5779 5777 5773 5769 5765 5761 5757 5754 5748 5741 5736 5730 5726 5720 5713 5707 5703 5699 5691 5686 5680 5675
5780 5781 5781 5783 5785 5787 5788 5789 5790 5790 5790 5791 5790 5790 5789 5789 5789 5788 5787 5787 5788 5785 5783 5782 5779 5777 5774 5771 5767 5763 5760 5755 5751 5748 5743 5736 5731 5726 5721 5716 5709 5704 5700 5695 5689 5682 5679
5774 5775 5775 5776 5778 5779 5780 5781 5782 5782 5783 5784 5783 5783 5782 5782 5782 5782 5782 5782 5781 5780 5778 5776 5775 5772 5770 5767 5766 5761 5757 5753 5748 5744 5740 5734 5729 5724 5720 5715 5709 5704 5699 5694 5689 5686 5683
5768 5768 5768 5768 5769 5769 5771 5772 5772 5774 5774 5775 5776 5776 5776 5775 5774 5775 5775 5775 5774 5774 5772 5770 5769 5768 5766 5764 5761 5758 5755 5750 5746 5741 5739 5733 5728 5722 5718 5714 5710 5705 5701 5698 5694 5690 5686
5760 5761 5761 5760 5761 5761 5761 5763 5763 5765 5765 5767 5766 5768 5769 5767 5767 5767 5766 5767 5767 5766 5764 5764 5762 5761 5759 5758 5756 5753 5750 5747 5743 5740 5735 5732 5729 5723 5719 5714 5710 5706 5703 5700 5695 5692 5688
5754 5754 5753 5753 5753 5753 5754 5754 5755 5756 5756 5757 5758 5758 5759 5759 5758 5758 5758 5760 5759 5758 5756 5756 5755 5753 5753 5751 5750 5748 5745 5742 5739 5735 5732 5728 5726 5724 5716 5712 5709 5705 5701 5698 5695 5692 5688
5746 5746 5746 5745 5745 5745 5745 5745 5746 5747 5747 5745 5747 5747 5747 5748 5748 5747 5749 5750 5751 5750 5749 5747 5746 5746 5745 5744 5743 5742 5740 5736 5733 5730 5727 5724 5720 5718 5715 5710 5706 5703 5699 5696 5694 5693 5688
5735 5735 5735 5735 5735 5736 5736 5736 5735 5735 5735 5735 5733 5735 5735 5736 5736 5739 5739 5739 5738 5739 5740 5739 5738 5738 5737 5737 5734 5733 5733 5731 5728 5725 5721 5718 5714 5710 5712 5706 5703 5699 5696 5694 5692 5689 5687
5722 5723 5722 5722 5723 5723 5723 5723 5722 5722 5722 5723 5723 5722 5723 5725 5724 5725 5727 5727 5726 5727 5728 5730 5728 5728 5729 5728 5725 5723 5725 5723 5722 5719 5716 5713 5712 5707 5705 5700 5697 5696 5692 5688 5687 5686 5684
5706 5707 5707 5708 5708 5709 5708 5707 5706 5707 5707 5708 5709 5710 5709 5711 5714 5714 5714 5715 5714 5715 5718 5719 5718 5718 5718 5716 5714 5716 5714 5713 5713 5711 5710 5707 5705 5702 5701 5696 5692 5690 5687 5684 5681 5680 5679
5691 5690 5691 5691 5692 5691 5692 5691 5691 5692 5692 5693 5693 5695 5697 5699 5699 5699 5701 5703 5703 5703 5703 5704 5704 5707 5705 5703 5705 5704 5703 5705 5704 5704 5701 5699 5696 5694 5695 5691 5688 5685 5682 5679 5676 5673 5672
5676 5677 5677 5677 5678 5679 5678 5679 5679 5679 5679 5679 5679 5680 5682 5688 5687 5686 5688 5689 5690 5689 5691 5691 5692 5692 5692 5694 5694 5692 5692 5692 5691 5692 5693 5691 5689 5685 5685 5682 5681 5680 5676 5674 5671 5668 5666
5667 5666 5667 5667 5666 5666 5666 5665 5664 5665 5665 5665 5665 5665 5666 5673 5671 5673 5672 5672 5674 5675 5677 5677 5677 5678 5683 5680 5679 5680 5680 5678 5677 5679 5681 5680 5681 5677 5675 5674 5673 5673 5668 5666 5665 5662 5659
5655 5655 5655 5654 5654 5653 5653 5652 5650 5650 5649 5649 5648 5648 5649 5655 5656 5656 5655 5656 5658 5659 5658 5661 5663 5664 5665 5664 5664 5664 5666 5665 5667 5667 5667 5670 5670 5667 5664 5664 5664 5665 5660 5657 5655 5657 5653
5642 5641 5641 5640 5638 5637 5636 5635 5634 5633 5631 5629 5626 5625 5626 5634 5641 5638 5639 5640 5641 5641 5643 5645 5644 5647 5648 5648 5647 5646 5648 5653 5651 5653 5657 5659 5659 5658 5655 5652 5652 5656 5650 5648 5646 5647 5645
5626 5624 5622 5621 5619 5618 5616 5615 5613 5612 5611 5609 5606 5603 5603 5611 5623 5617 5620 5623 5623 5619 5620 5624 5627 5631 5628 5628 5629 5631 5633 5638 5637 5641 5643 5643 5645 5646 5645 5640 5642 5647 5642 5639 5638 5638 5634
5608 5606 5604 5603 5601 5599 5596 5594 5593 5591 5589 5588 5587 5583 5579 5585 5604 5598 5601 5607 5602 5599 5601 5608 5605 5608 5609 5609 5613 5617 5616 5622 5620 5626 5629 5631 5632 5631 5632 5631 5631 5633 5632 5631 5629 5626 5625
5590 5588 5585 5583 5581 5579 5577 5573 5570 5568 5565 5562 5562 5556 5551 5554 5583 5575 5585 5586 5579 5584 5578 5581 5587 5588 5587 5588 5593 5598 5598 5602 5606 5607 5613 5613 5620 5621 5620 5621 5622 5621 5619 5618 5617 5616 5615